Location: Chapel Hill
(35.9134°N, 79.0560°W)
Time: 17:03:30
(UTC-05:00)

Tiangong - Visible Passes

Search period start: 01 December 2021 00:00
Search period end: 11 December 2021 00:00
Orbit: 380 x 384 km, 41.5° (Epoch: 01 December)

Date Brightness Start Highest point End Pass type
(mag) Time Alt. Az. Time Alt. Az. Time Alt. Az.
05 Dec 3.1 18:24:55 10° S 18:26:51 16° SE 18:26:51 16° SE visible
06 Dec 2.9 18:59:56 10° SW 19:01:40 28° SW 19:01:40 28° SW visible
07 Dec 2.3 17:59:52 10° SSW 18:02:39 29° SSE 18:04:14 19° E visible
07 Dec 4.7 19:36:15 10° W 19:36:24 11° W 19:36:24 11° W visible
08 Dec 0.9 18:35:39 10° WSW 18:38:48 82° NNW 18:38:53 80° N visible
09 Dec 1.4 17:35:14 10° SW 17:38:19 55° SSE 17:41:19 11° ENE visible
09 Dec 3.6 19:12:15 10° W 19:13:28 20° WNW 19:13:28 20° WNW visible
10 Dec 1.5 18:11:29 10° W 18:14:34 51° NNW 18:15:50 29° NE visible
